Weather observations for the past three days for
Morristown Municipal
Imperial (Metric)
Date Time (edt) Wind (mph) Vis. (mi.) Weather Sky Cond. Temperature (ºF) Relative Humidity Wind Chill (°F) Heat Index (°F) Pressure Precipitation (in)
Air Dwpt 6 hour altimeter (in) sea level (mb) 1 hr 3 hr 6 hr
Max. Min.
15 22:55 S 3 10.00 Fair CLR 80.6 71.6 74% 85 29.79 0.0
15 22:35 S 5 10.00 Fair CLR 80.6 69.8 70% 84 29.79 0.0
15 21:45 SW 7 10.00 Mostly Cloudy BKN250 82.4 71.6 70% 87 29.8 0.0
15 20:45 Calm 10.00 Mostly Cloudy FEW150 BKN250 82.4 73.4 74% 88 29.79 0.0
15 19:45 SW 6 10.00 Partly Cloudy SCT250 89.6 71.6 55% 96 29.78 0.0
15 18:45 SW 10 G 18 10.00 Partly Cloudy SCT250 93.2 68 44% 98 29.78 0.0
15 17:45 SW 12 G 20 10.00 Partly Cloudy SCT250 95 68 41% 100 29.79 0.0
15 16:45 W 12 G 20 10.00 Partly Cloudy SCT050 SCT250 95 68 41% 100 29.8 0.0
15 15:45 W 15 G 21 10.00 Partly Cloudy SCT050 SCT250 95 68 41% 100 29.82 0.0
15 14:45 W 13 G 20 10.00 Partly Cloudy SCT049 93.2 71.6 50% 101 29.84 0.0
15 13:45 SW 12 10.00 Partly Cloudy FEW050 SCT110 91.4 75.2 59% 103 29.86 0.0
15 12:45 SW 10 10.00 Mostly Cloudy SCT027 BKN250 89.6 77 67% 103 29.89 0.0
15 11:50 S 3 10.00 A Few Clouds FEW019 86 77 75% 97 29.9 0.0
15 10:45 W 5 10.00 Mostly Cloudy SCT015 BKN090 BKN110 82.4 77 84% 91 29.91 0.0
15 09:45 S 8 10.00 Overcast OVC013 82.4 75.2 79% 89 29.92 0.0
15 08:54 SW 5 10.00 Overcast OVC013 78.8 75.2 89% 82 29.92 0.0
15 07:50 S 6 10.00 Partly Cloudy SCT017 78.8 71.6 79% 82 29.93 0.0
15 06:45 Calm 10.00 Clear SKC 73.4 71.6 94% 29.92 0.0
15 06:35 Calm 7.00 Fair CLR 71.6 69.8 94% 29.91 0.0
15 06:15 Calm 10.00 Fair CLR 71.6 69.8 94% 29.92 0.0
15 05:55 Calm 10.00 Fair CLR 71.6 69.8 94% 29.91 0.0
15 05:35 Calm 10.00 Fair CLR 71.6 71.6 100% 29.91 0.0
15 05:15 Calm 10.00 Partly Cloudy SCT075 71.6 71.6 100% 29.91 0.0
15 04:55 Calm 10.00 Partly Cloudy SCT075 71.6 71.6 100% 29.91 0.0
15 04:35 Calm 10.00 Thunderstorm in Vicinity SCT100 71.6 69.8 94% 29.91 0.0
15 04:15 Calm 10.00 Mostly Cloudy SCT090 BKN110 71.6 69.8 94% 29.91 0.0
15 03:55 Calm 10.00 Mostly Cloudy BKN110 71.6 69.8 94% 29.91 0.0
15 03:35 Calm 10.00 Partly Cloudy SCT085 SCT110 71.6 69.8 94% 29.91 0.0
15 03:15 Calm 10.00 Partly Cloudy SCT095 71.6 69.8 94% 29.9 0.0
15 02:55 Calm 7.00 Fair CLR 71.6 69.8 94% 29.9 0.0
15 02:35 Calm 7.00 Partly Cloudy SCT090 SCT110 71.6 69.8 94% 29.91 0.0
15 02:15 Calm 10.00 Partly Cloudy SCT110 71.6 69.8 94% 29.92 0.0
15 01:55 Calm 10.00 Fair CLR 69.8 69.8 100% 29.93 0.0
15 01:35 Calm 10.00 Fair CLR 71.6 69.8 94% 29.93 0.0
15 01:15 Calm 10.00 Partly Cloudy SCT120 71.6 69.8 94% 29.93 0.0
15 00:55 Calm 10.00 Fair CLR 71.6 71.6 100% 29.94 0.0
15 00:35 Calm 10.00 Fair CLR 73.4 71.6 94% 29.94 0.0
15 00:15 Calm 10.00 Fair CLR 73.4 71.6 94% 29.95 0.0
14 23:55 Calm 10.00 Fair CLR 73.4 71.6 94% 29.95 0.0
14 23:35 Calm 10.00 Fair CLR 73.4 71.6 94% 29.95 0.0
14 23:15 Calm 10.00 Fair CLR 75.2 71.6 89% 75 29.94 0.0
14 22:55 Calm 10.00 Fair CLR 75.2 71.6 89% 75 29.95 0.0
14 22:35 Calm 10.00 Fair CLR 75.2 71.6 89% 75 29.95 0.0
14 21:45 S 3 10.00 Clear SKC 78.8 73.4 84% 82 29.95 0.0
14 20:45 S 5 10.00 Clear SKC 80.6 73.4 79% 85 29.95 0.0
14 19:54 W 3 10.00 Clear SKC 82.4 73.4 74% 88 29.95 0.0
14 18:45 SW 7 10.00 Clear SKC 84.2 73.4 70% 91 29.96 0.0
14 17:45 SW 7 10.00 Partly Cloudy SCT090 84.2 73.4 70% 91 29.97 0.0
14 16:50 S 8 10.00 Partly Cloudy SCT090 84.2 73.4 70% 91 29.98 0.0
14 15:50 SW 5 10.00 Mostly Cloudy BKN055 82.4 71.6 70% 87 29.99 0.0
14 14:51 SE 7 10.00 Thunderstorm in Vicinity SCT095 87.8 75.2 66% 98 29.99 0.0
14 14:50 SE 7 10.00 Thunderstorm in Vicinity SCT095 87.8 75.2 66% 98 29.99 0.0
14 13:50 SE 10 G 17 10.00 Overcast OVC043 82.4 73.4 74% 88 30.01 0.0
14 12:45 S 3 10.00 Mostly Cloudy SCT046 BKN055 89.6 71.6 55% 96 30.02 0.0
14 11:50 Calm 10.00 Clear SKC 87.8 71.6 59% 94 30.05 0.0
14 10:51 Calm 10.00 Clear SKC 86 71.6 62% 92 30.06 0.0
14 09:52 E 5 10.00 Clear SKC 82.4 73.4 74% 88 30.07 0.0
14 08:53 N 3 10.00 Clear SKC 80.6 71.6 74% 85 30.07 0.0
14 07:48 Calm 10.00 Clear with Haze SKC 77 73.4 89% 78 30.07 0.0
14 06:45 Calm 10.00 Fog/Mist SKC 69.8 69.8 100% 30.06 0.0
14 06:35 Calm 10.00 Fair CLR 69.8 69.8 100% 30.05 0.0
14 06:15 Calm 7.00 Fair CLR 68 68 100% 30.05 0.0
14 05:55 Calm 7.00 Fair CLR 68 68 100% 30.05 0.0
14 05:35 Calm 5.00 Fog/Mist CLR 66.2 66.2 100% 30.05 0.0
14 05:15 Calm 7.00 Fair CLR 68 68 100% 30.05 0.0
14 04:55 Calm 10.00 Fair CLR 68 66.2 94% 30.05 0.0
14 04:35 Calm 7.00 Fair CLR 68 68 100% 30.05 0.0
14 04:15 Calm 5.00 Fog/Mist CLR 68 68 100% 30.05 0.0
14 03:55 Calm 7.00 Fair CLR 68 68 100% 30.06 0.0
14 03:35 Calm 7.00 Fair CLR 68 68 100% 30.05 0.0
14 03:15 Calm 7.00 Fair CLR 69.8 68 94% 30.05 0.0
14 02:55 Calm 10.00 Fair CLR 69.8 68 94% 30.05 0.0
14 02:35 Calm 7.00 Fair CLR 69.8 68 94% 30.05 0.0
14 02:15 Calm 10.00 Fair CLR 69.8 69.8 100% 30.06 0.0
14 01:55 Calm 10.00 Fair CLR 69.8 69.8 100% 30.06 0.0
14 01:35 Calm 10.00 Fair CLR 71.6 69.8 94% 30.06 0.0
14 01:15 Calm 10.00 Fair CLR 71.6 71.6 100% 30.06 0.0
14 00:55 Calm 10.00 Fair CLR 71.6 69.8 94% 30.06 0.0
14 00:35 Calm 10.00 Fair CLR 71.6 69.8 94% 30.07 0.0
14 00:15 Calm 10.00 Fair CLR 71.6 71.6 100% 30.07 0.0
13 23:55 Calm 10.00 Fair CLR 71.6 71.6 100% 30.07 0.0
13 23:35 Calm 10.00 Fair CLR 73.4 71.6 94% 30.07 0.0
13 23:15 Calm 10.00 Fair CLR 73.4 71.6 94% 30.07 0.0
13 22:55 Calm 10.00 Fair CLR 73.4 71.6 94% 30.07 0.0
13 22:35 Calm 10.00 Fair CLR 75.2 73.4 94% 74 30.07 0.0
13 21:45 Calm 10.00 Clear SKC 75.2 73.4 94% 74 30.08 0.0
13 20:45 S 3 10.00 A Few Clouds FEW060 82.4 73.4 74% 88 30.07 0.0
13 19:45 S 5 10.00 A Few Clouds FEW060 86 73.4 66% 93 30.07 0.0
13 18:50 SW 5 10.00 Partly Cloudy SCT060 87.8 69.8 55% 93 30.06 0.0
13 17:45 SW 7 10.00 A Few Clouds FEW160 89.6 69.8 52% 95 30.06 0.0
13 16:50 SW 10 10.00 Partly Cloudy SCT100 89.6 71.6 55% 96 30.07 0.0
13 15:45 Calm 10.00 Partly Cloudy SCT080 87.8 71.6 59% 94 30.08 0.0
13 14:45 E 6 10.00 Partly Cloudy SCT043 SCT060 86 71.6 62% 92 30.09 0.0
13 13:50 SE 5 10.00 Partly Cloudy SCT055 86 73.4 66% 93 30.11 0.0
13 12:55 SE 3 10.00 Partly Cloudy SCT055 84.2 73.4 70% 91 30.13 0.0
13 11:50 Calm 10.00 Mostly Cloudy SCT015 BKN028 80.6 73.4 79% 85 30.15 0.0
13 10:46 Calm 10.00 Partly Cloudy BKN009 SCT075 SCT090 78.8 73.4 84% 82 30.16 0.0
13 10:45 Calm 10.00 Partly Cloudy BKN009 SCT075 SCT090 78.8 73.4 84% 82 30.16 0.0
13 09:45 NE 3 3.00 Rain SCT004 BKN009 OVC029 75.2 73.4 94% 74 30.18 0.0
13 08:51 Calm 4.00 Rain BKN008 BKN012 OVC034 75.2 73.4 94% 74 30.18 0.0
13 08:50 Calm 4.00 Overcast BKN008 BKN012 OVC034 75.2 73.4 94% 74 30.18 0.0
13 07:45 S 3 7.00 Overcast BKN009 OVC043 75.2 73.4 94% 74 30.18 0.0
13 06:45 Calm 2.00 Rain BKN007 OVC018 73.4 73.4 100% 30.18 0.0
13 06:35 Calm 3.00 Heavy Rain SCT007 OVC018 73.4 71.6 94% 30.18 0.0 0.06
13 06:15 Calm 10.00 Overcast BKN018 BKN040 OVC047 73.4 71.6 94% 30.17 0.0
13 05:55 Calm 7.00 Drizzle SCT036 BKN046 OVC050 73.4 71.6 94% 30.17 0.0
13 05:35 Calm 5.00 Rain SCT024 BKN055 OVC070 73.4 71.6 94% 30.17 0.0
13 05:15 Calm 10.00 Overcast SCT055 OVC080 73.4 71.6 94% 30.17 0.0
13 04:55 Calm 10.00 Overcast SCT065 OVC085 73.4 71.6 94% 30.16 0.0
13 04:35 Calm 10.00 Overcast SCT010 SCT065 OVC095 73.4 71.6 94% 30.17 0.0
13 04:15 Calm 10.00 Overcast SCT010 BKN075 OVC095 73.4 71.6 94% 30.16 0.0
13 03:55 Calm 10.00 Overcast SCT010 OVC095 73.4 71.6 94% 30.16 0.0
13 03:35 Calm 10.00 Overcast OVC095 73.4 71.6 94% 30.16 0.0
13 03:15 Calm 10.00 Partly Cloudy SCT095 73.4 71.6 94% 30.16 0.0
13 02:55 Calm 10.00 Fair CLR 75.2 71.6 89% 75 30.16 0.0
13 02:35 S 3 10.00 Partly Cloudy SCT012 SCT070 75.2 71.6 89% 75 30.16 0.0
13 02:15 Calm 10.00 Overcast OVC012 75.2 71.6 89% 75 30.17 0.0
13 01:55 S 3 10.00 Overcast OVC012 75.2 73.4 94% 74 30.18 0.0
13 01:35 Calm 10.00 Overcast OVC012 75.2 73.4 94% 74 30.18 0.0
13 01:15 S 3 10.00 Mostly Cloudy BKN012 BKN023 BKN060 75.2 73.4 94% 74 30.18 0.0
13 00:55 Calm 10.00 Partly Cloudy SCT021 SCT060 SCT080 75.2 73.4 94% 74 30.17 0.0
13 00:35 SW 3 10.00 Partly Cloudy SCT031 SCT039 SCT080 75.2 73.4 94% 74 30.17 0.0
13 00:15 S 3 10.00 Mostly Cloudy SCT024 SCT033 BKN120 75.2 71.6 89% 75 30.18 0.0
12 23:55 S 3 10.00 Partly Cloudy SCT120 75.2 71.6 89% 75 30.18 0.0
12 23:35 S 5 10.00 Fair CLR 75.2 71.6 89% 75 30.19 0.0
12 23:15 S 3 10.00 Fair CLR 77 73.4 89% 78 30.18 0.0
Date Time (edt) Wind (mph) Vis. (mi.) Weather Sky Cond. Air Dwpt Max. Min. Relative Humidity Wind Chill (°F) Heat Index (°F) altimeter (in) sea level (mb) 1 hr 3 hr 6 hr
6 hour
Temperature (ºF) Pressure Precipitation (in)